Notices

What's New in latest Release from April 7th, 2021:

- Updated Glossary, including Speed of Maximum Gust, and Total Hourly Precipitation

- Updated national and regional climate services offices contacts and prices information

- Addition of station inventory lists for 1981-2010, 1971-2000, and 1961-1990 Normals.

If you haven't already, please take our survey and provide feedback about our website: https://eccc.sondage-survey.ca/f/LanguageSelection.aspx?s=442ca660-fcf1-47c0-95a9-59707d6fd709

Hourly Data Report for January 18, 2005

SHERBROOKE A
QUEBEC

45°26'00.000" N
71°41'00.000" W
241.40 m
7028124
71610
YSC

Download Data

Hourly Data (January 2005)
Hourly Data Report for January 18, 2005
TIME
LST
Temp Definition
°C
Dew Point Definition
°C
Rel Hum Definition
%
Precip. Amount Definition
mm

Wind Dir Definition
10's deg

Wind Spd Definition
km/h
Visibility Definition
km
Stn Press Definition
kPa
Hmdx Definition


Wind Chill Definition


Weather Definition


00:00 -20.1 -23.6 74   29 28 11.3 99.25   -32  
01:00 -20.9 -24.4 73   30 22 15.0 99.30   -32  
02:00 -21.8 -25.5 72   31 30 12.9 99.37   -35  
03:00 -22.3 -25.9 72   30 30 12.9 99.43   -36  
04:00 -22.6 -25.8 75   31 20 2.9 99.52   -34  
05:00 -23.1 -26.5 74   30 17 6.4 99.59   -34  
06:00 -23.7 -29.1 61   30 24 4.0 99.70   -36  
07:00 -24.3 -30.3 58   29 30 6.4 99.85   -38 Snow
08:00 -24.4 -30.5 57   29 20 19.3 99.95   -36 Snow Showers
09:00 -24.5 -30.9 55   30 32 16.1 100.07   -39 Snow Showers
10:00 -23.8 -29.7 58   28 26 4.8 100.18   -37 Snow Showers
11:00 -23.6 -30.4 54   29 26 6.4 100.22   -36 Snow Showers
12:00 -23.0 -30.2 52   28 24 12.9 100.23   -35 Snow Showers
13:00 -22.0 -29.1 53   29 30 24.1 100.23   -35 Mainly Clear
14:00 -21.5 -29.9 47   30 20 24.1 100.25   -32 Mainly Clear
15:00 -21.5 -29.3 49   29 28 24.1 100.30   -34 Mainly Clear
16:00 -22.0 -29.7 50   28 20 24.1 100.37   -33 Mainly Clear
17:00 -23.0 -29.5 55   27 15 24.1 100.44   -33 Mainly Clear
18:00 -23.7 -30.2 55   26 11 15.0 100.52   -32  
19:00 -24.1 -30.7 54   27 11 15.0 100.54   -33  
20:00 -24.8 -30.1 61   19 4 15.0 100.56   -29  
21:00 -25.6 -30.4 64     0 15.0 100.49      
22:00 -25.4 -30.5 62   21 4 15.0 100.48   -29  
23:00 -25.7 -30.9 62   16 7 15.0 100.44   -32  

Notes on Data Quality.

Legend

  • E = Estimated
  • M = Missing
  • NA = Not Available*
  • [empty] = Indicates an unobserved value
Date modified: